Paso Robles, CA

8:56 AM PDT on June 27, 2017 (GMT -0700)
Paso Robles Municipal

Weather History for KPRB - August, 2014

Change the Weather History Date:

Friday, August 8, 2014

  Actual Average Record
Temperature  
Mean Temperature 76 °F 74 °F  
Max Temperature 94 °F 93 °F 108 °F (1984)
Min Temperature 57 °F 54 °F 44 °F (1950)
Degree Days  
Heating Degree Days 0 0  
Month to date heating degree days 0 0  
Since 1 June heating degree days 11 31  
Since 1 July heating degree days 0 4  
Cooling Degree Days 11 9  
Month to date cooling degree days 89 72  
Year to date cooling degree days 818 549  
Since 1 June cooling degree days 665 481  
Growing Degree Days 25 (Base 50)    
Moisture  
Dew Point 52 °F    
Average Humidity 53    
Maximum Humidity 86    
Minimum Humidity 20    
Precipitation  
Precipitation 0.00 in 0.00 in 0.07 in (1997)
Month to date precipitation 0.00 0.02  
Year to date precipitation 4.46 8.81  
Since 1 July precipitation T  
Sea Level Pressure  
Sea Level Pressure 29.89 in    
Wind  
Wind Speed 8 mph (WSW)    
Max Wind Speed 22 mph    
Max Gust Speed 26 mph    
Visibility 10 miles    
Events      
T = Trace of Precipitation, MM = Missing Value Source: NWS Daily Summary

Daily Weather History Graph

Daily Weather History Graph

Search for Another Location

Airport or City:

Trip Planner

Search our weather history database for the weather conditions in past years. The results will help you decide how hot, cold, wet, or windy it might be!

Date:

Astronomy

Aug. 08, 2014 Rise Set
Actual Time 6:16 AM PDT 7:59 PM PDT
Civil Twilight 5:48 AM PDT 8:27 PM PDT
Nautical Twilight 5:15 AM PDT 9:00 PM PDT
Astronomical Twilight 4:39 AM PDT 9:35 PM PDT
Moon 6:15 PM PDT (8/8) 3:55 AM PDT (8/8)
Length of Visible Light 14h 38m
Length of Day
13h 43m
Waxing Gibbous, 94% of the Moon is Illuminated
Aug 8
Waxing Gibbous
Aug 10
Full
Aug 17
Last Quarter
Aug 25
New
Sep 2
First Quarter

Hourly Weather History & Observations

Time (PDT) Temp. Heat Index Dew Point Humidity Pressure Visibility Wind Dir Wind Speed Gust Speed Precip Events Conditions
12:53 AM 64.0 °F - 52.0 °F 65% 29.91 in 10.0 mi WNW 6.9 mph - N/A   Clear
1:53 AM 63.0 °F - 52.0 °F 67% 29.91 in 10.0 mi Variable 3.5 mph - N/A   Clear
2:53 AM 61.0 °F - 53.1 °F 75% 29.91 in 10.0 mi Calm Calm - N/A   Clear
3:53 AM 61.0 °F - 52.0 °F 72% 29.91 in 10.0 mi Calm Calm - N/A   Clear
4:53 AM 59.0 °F - 52.0 °F 78% 29.91 in 10.0 mi Calm Calm - N/A   Clear
5:53 AM 57.9 °F - 52.0 °F 81% 29.91 in 10.0 mi NNW 4.6 mph - N/A   Clear
6:53 AM 57.0 °F - 53.1 °F 87% 29.92 in 10.0 mi NNW 3.5 mph - N/A   Clear
7:53 AM 60.1 °F - 54.0 °F 80% 29.93 in 10.0 mi NW 4.6 mph - N/A   Clear
8:53 AM 63.0 °F - 54.0 °F 72% 29.93 in 10.0 mi WNW 4.6 mph - N/A   Clear
9:53 AM 69.1 °F - 55.0 °F 61% 29.92 in 10.0 mi Calm Calm - N/A   Clear
10:53 AM 75.0 °F - 54.0 °F 48% 29.92 in 10.0 mi Calm Calm - N/A   Clear
11:53 AM 84.0 °F 82.5 °F 53.1 °F 34% 29.90 in 10.0 mi WSW 4.6 mph - N/A   Clear
12:53 PM 91.0 °F - 48.0 °F 23% 29.88 in 10.0 mi North - - N/A   Clear
1:53 PM 93.0 °F - 46.9 °F 20% 29.86 in 10.0 mi SSW 8.1 mph - N/A   Clear
2:53 PM 91.0 °F - 50.0 °F 24% 29.84 in 10.0 mi SSW 17.3 mph - N/A   Clear
3:53 PM 89.1 °F - 51.1 °F 27% 29.82 in 10.0 mi South 17.3 mph - N/A   Clear
4:53 PM 86.0 °F 84.0 °F 53.1 °F 32% 29.81 in 10.0 mi South 20.7 mph - N/A   Clear
5:53 PM 82.0 °F 81.2 °F 53.1 °F 37% 29.81 in 10.0 mi South 18.4 mph - N/A   Clear
6:53 PM 79.0 °F - 53.1 °F 40% 29.83 in 10.0 mi SSW 15.0 mph - N/A   Clear
7:53 PM 73.0 °F - 52.0 °F 48% 29.85 in 10.0 mi SSW 12.7 mph - N/A   Clear
8:53 PM 73.9 °F - 48.9 °F 41% 29.87 in 10.0 mi WNW 15.0 mph - N/A   Clear
9:53 PM 66.9 °F - 52.0 °F 59% 29.89 in 10.0 mi SW 4.6 mph - N/A   Clear
10:53 PM 66.0 °F - 52.0 °F 60% 29.90 in 10.0 mi SW 4.6 mph - N/A   Clear
11:53 PM 64.9 °F - 52.0 °F 63% 29.90 in 10.0 mi NW 4.6 mph - N/A   Clear